Current weather by "City, St" or "zip code"  
 

Current Conditions: Harvey Municipal Airport, ND

Fair


16.0 F

Last Updated on Oct 23 2020, 9:55 pm CDT
Humidity: 79%
Wind Speed: NW 8.1 mph
Barometer 30.36 in
Dewpoint: 10.4 F
Visibility: 10.00 mi
Precip: --
Heat Index: NA
Wind Chill: 5 F
Current conditions at:

Harvey Municipal Airport, ND (K5H4)

Lat: 47.7912 Lon: 99.9317

Local Radar Image active severe weather and emergency alerts image image weather storm and storm spotter reports image weather observation monitoring service image
Local
Radar
Active
Alerts
Storm Reports Obs
Monitoring

Sign-up For Email & Text Message Weather Alert Notification Services



Advertise Here

Observation History for Harvey Municipal Airport, ND


Time Wind
(mph)
Vis
(mi)
Weather Precip (in) Temperature (F) Relative
Humidity
Wind
Chill
(F)
Heat
Index
(F)
Pressure
Air Dwpt altimeter
(in)
sea level
(mb)
Rmks
9:55 pm CDT NW 8.1 10.00 Fair -- 16.0 10.4 79% 5 NA 30.36 M
8:55 pm CDT W 8.1 10.00 Fair -- 18.0 10.4 73% 8 NA 30.36 M
7:55 pm CDT W 6.9 10.00 Fair -- 18.0 10.4 73% 9 NA 30.36 M
6:55 pm CDT W 6.9 10.00 Fair -- 21.0 12.2 68% 12 NA 30.37 M
5:55 pm CDT NW 8.1 10.00 Fair -- 23.0 14.0 68% 14 NA 30.38 M
4:55 pm CDT W 11.5 10.00 Mostly Cloudy -- 25.0 14.0 63% 14 NA 30.39 M
3:55 pm CDT NW 16.1 10.00 Fair -- 27.0 15.8 64% 15 NA 30.38 M
2:55 pm CDT NW 15.0 10.00 Light Snow -- 25.0 15.8 69% 13 NA 30.40 M
1:55 pm CDT NW 15.0 10.00 Fair -- 25.0 15.8 69% 13 NA 30.42 M
12:55 pm CDT NW 13.8 10.00 Fair -- 23.0 15.8 74% 11 NA 30.44 M
11:55 am CDT W 12.7 10.00 Fair -- 21.0 15.8 80% 9 NA 30.46 M
10:55 am CDT W 15.0 10.00 Fair -- 18.0 14.0 86% 4 NA 30.47 M
9:55 am CDT W 11.5 10.00 Fair -- 16.0 12.2 86% 3 NA 30.47 M
8:55 am CDT W 11.5 10.00 Fair -- 12.0 8.6 85% -2 NA 30.47 M
7:55 am CDT W 10.4 10.00 Fair -- 12.0 8.6 85% -1 NA 30.48 M
6:55 am CDT W 5.8 10.00 Fair -- 10.0 8.6 92% NA NA 30.48 M
5:55 am CDT NW 8.1 10.00 Fair -- 10.0 8.6 92% -2 NA 30.47 M
4:55 am CDT NW 8.1 10.00 Fair -- 12.0 8.6 85% NA NA 30.46 M
3:55 am CDT NW 10.4 10.00 Overcast -- 16.0 12.2 86% 4 NA 30.46 M
2:55 am CDT NW 12.7 10.00 Overcast -- 18.0 14.0 86% 5 NA 30.45 M
1:55 am CDT NW 11.5 10.00 Overcast -- 21.0 17.6 86% 9 NA 30.44 M
12:55 am CDT NW 10.4 10.00 Overcast -- 23.0 23.0 100% 12 NA 30.44 M
11:55 pm CDT NW 15.0 7.00 Light Snow -- 23.0 23.0 100% 10 NA 30.44 M
10:55 pm CDT NW 13.8 G 20.7 7.00 Overcast -- 25.0 23.0 93% 13 NA 30.43 M

Regional Weather Observation


RUGBY, ND (KRUG)

A Few Clouds
12.0 F

CANDO, ND (K9D7)

Fair
10.0 F

CARRINGTON, ND (K46D)

Fair
16.0 F

ROLLA, ND (K06D)

Overcast
12.0 F

Minot International Airport, ND (KMOT)

Fair
16.0 F

Minot Air Force Base, ND (KMIB)

Fair
11.0 F